�N����,����,�~����,�C��,���x,�C��,����,���ϕ���,�ő�u�ԕ���,�ő厞����,���˗�,�I�_���x,�n�����x,�ő啗���N��,DTYPE
"23/08/03","00:10",0.0,27.2,77.7,1003.8,329.4,0.6,1.0,332.2,0.00,23.0,26.7,"00:00:56",1
"23/08/03","00:20",0.0,27.0,78.6,1003.8,322.8,0.5,1.2,329.4,0.00,23.0,26.5,"00:18:48",1
"23/08/03","00:30",0.0,26.5,79.9,1004.1,295.8,0.6,1.0,304.1,0.00,22.8,26.7,"00:24:40",1
"23/08/03","00:40",0.0,26.5,81.1,1004.1,314.6,1.1,1.9,330.5,0.00,23.0,26.6,"00:33:52",1
"23/08/03","00:50",0.0,26.5,81.5,1004.1,295.0,0.7,1.4,294.9,0.00,23.1,26.4,"00:41:28",1
"23/08/03","01:00",0.0,26.4,81.6,1004.1,311.1,0.8,1.6,335.0,0.00,23.0,26.5,"00:54:08",1
"23/08/03","01:10",0.0,26.3,82.0,1004.3,328.8,0.8,1.3,320.0,0.00,23.0,26.5,"01:02:32",1
"23/08/03","01:20",0.0,26.0,82.6,1004.3,309.5,0.7,1.1,312.2,0.00,22.8,26.6,"01:16:08",1
"23/08/03","01:30",0.0,26.0,83.1,1004.1,281.2,0.7,1.1,321.6,0.00,22.9,26.4,"01:26:48",1
"23/08/03","01:40",0.0,25.9,83.3,1004.1,292.7,0.7,1.1,262.6,0.00,22.9,26.5,"01:30:56",1
"23/08/03","01:50",0.0,25.9,83.6,1004.3,311.1,0.8,1.6,322.5,0.00,22.9,26.2,"01:42:16",1
"23/08/03","02:00",0.0,25.7,83.8,1004.1,325.3,0.5,1.3,356.7,0.00,22.8,26.0,"01:57:44",1
"23/08/03","02:10",0.0,25.7,84.1,1003.8,302.4,0.8,1.6,313.7,0.00,22.9,25.9,"02:07:28",1
"23/08/03","02:20",0.0,25.6,84.3,1004.1,297.4,0.7,1.2,289.6,0.00,22.8,26.3,"02:11:04",1
"23/08/03","02:30",0.0,25.5,84.5,1004.1,299.0,0.6,1.3,324.5,0.00,22.7,26.2,"02:26:08",1
"23/08/03","02:40",0.0,25.5,84.9,1004.5,311.0,0.8,1.1,328.9,0.00,22.8,26.2,"02:35:36",1
"23/08/03","02:50",0.0,25.5,85.2,1004.5,336.1,0.8,1.4,325.5,0.00,22.9,26.0,"02:43:44",1
"23/08/03","03:00",0.0,25.4,85.4,1004.3,334.8,0.7,1.0,334.1,0.00,22.8,25.9,"02:52:56",1
"23/08/03","03:10",0.0,25.0,85.7,1004.5,310.1,0.3,1.0,336.7,0.00,22.5,26.0,"03:09:52",1
"23/08/03","03:20",0.0,24.9,86.0,1004.8,288.3,0.3,1.0,340.7,0.00,22.4,26.2,"03:10:08",1
"23/08/03","03:30",0.0,25.1,86.5,1004.5,308.8,0.7,1.2,299.1,0.00,22.7,26.1,"03:24:08",1
"23/08/03","03:40",0.0,24.9,86.9,1004.8,316.5,0.6,1.2,343.8,0.00,22.6,25.9,"03:33:36",1
"23/08/03","03:50",0.0,25.0,87.2,1004.8,294.2,0.8,1.2,336.5,0.00,22.8,25.8,"03:42:08",1
"23/08/03","04:00",0.0,25.0,87.3,1005.2,310.4,0.7,1.2,306.6,0.00,22.8,25.7,"03:52:24",1
"23/08/03","04:10",0.0,24.9,87.3,1004.8,317.7,0.7,1.1,335.7,0.00,22.7,25.8,"04:07:52",1
"23/08/03","04:20",0.0,24.8,87.6,1005.2,323.4,0.8,1.1,306.1,0.00,22.6,25.7,"04:19:44",1
"23/08/03","04:30",0.0,24.7,87.8,1005.0,279.2,0.6,1.2,300.9,0.00,22.6,25.7,"04:27:04",1
"23/08/03","04:40",0.0,24.8,88.0,1005.0,306.5,0.8,1.3,326.3,0.00,22.7,25.5,"04:39:36",1
"23/08/03","04:50",0.0,24.9,88.1,1005.2,336.9,1.0,1.3,328.6,0.00,22.8,25.6,"04:40:32",1
"23/08/03","05:00",0.0,24.6,88.3,1005.2,320.8,1.0,1.4,335.8,0.00,22.6,25.6,"04:53:36",1
"23/08/03","05:10",0.0,24.5,88.6,1005.5,300.5,0.8,1.4,316.6,0.00,22.5,25.7,"05:06:08",1
"23/08/03","05:20",0.0,24.5,88.7,1005.2,301.9,0.7,1.6,327.1,0.00,22.6,25.5,"05:15:04",1
"23/08/03","05:30",0.0,24.5,88.7,1005.2,288.5,0.6,1.3,259.7,0.00,22.6,25.6,"05:27:36",1
"23/08/03","05:40",0.0,24.7,88.7,1005.0,296.3,0.8,1.6,313.1,0.00,22.7,25.5,"05:35:28",1
"23/08/03","05:50",0.0,24.8,88.7,1005.2,279.6,0.7,1.1,305.5,0.00,22.8,25.6,"05:40:16",1
"23/08/03","06:00",0.0,25.0,88.5,1005.0,292.8,0.8,1.4,321.7,0.00,23.0,25.4,"05:56:16",1
"23/08/03","06:10",0.0,25.2,88.3,1005.2,315.0,0.7,1.1,322.6,0.01,23.2,25.5,"06:04:00",1
"23/08/03","06:20",0.0,25.7,88.0,1005.2,339.9,0.7,1.0,328.7,0.03,23.6,25.5,"06:10:16",1
"23/08/03","06:30",0.0,26.4,87.1,1005.2,1.6,0.7,1.3,352.2,0.04,24.1,25.5,"06:22:08",1
"23/08/03","06:40",0.0,26.8,85.7,1005.0,350.7,0.6,1.2,340.6,0.06,24.2,25.5,"06:33:04",1
"23/08/03","06:50",0.0,28.1,84.4,1004.8,23.8,0.1,0.5,73.0,0.08,25.3,25.5,"06:40:48",1
"23/08/03","07:00",0.0,28.9,80.9,1005.0,49.5,0.2,1.0,25.0,0.10,25.3,25.3,"06:59:52",1
"23/08/03","07:10",0.0,29.7,76.9,1004.5,14.8,0.2,0.8,348.6,0.10,25.3,25.3,"07:00:08",1
"23/08/03","07:20",0.0,30.5,72.8,1004.5,78.6,0.3,1.3,14.9,0.14,25.1,25.4,"07:18:40",1
"23/08/03","07:30",0.0,31.0,70.3,1005.0,52.6,0.2,1.2,54.9,0.16,25.0,25.4,"07:22:00",1
"23/08/03","07:40",0.0,31.2,68.0,1005.5,24.9,0.6,1.3,44.1,0.20,24.6,25.4,"07:39:04",1
"23/08/03","07:50",0.0,31.3,66.5,1005.5,57.9,0.7,1.6,46.9,0.18,24.4,25.3,"07:46:56",1
"23/08/03","08:00",0.0,31.0,67.5,1006.0,350.4,0.7,1.7,340.0,0.18,24.3,25.3,"07:53:44",1
"23/08/03","08:10",0.0,31.0,66.8,1006.0,7.5,0.8,1.8,16.1,0.22,24.1,25.3,"08:05:28",1
"23/08/03","08:20",0.0,31.2,66.4,1006.2,337.6,1.0,2.5,358.8,0.26,24.2,25.3,"08:19:36",1
"23/08/03","08:30",0.0,31.2,67.1,1006.2,10.6,0.8,2.1,356.6,0.21,24.4,25.7,"08:21:12",1
"23/08/03","08:40",0.0,32.2,64.2,1006.4,145.4,1.0,2.5,231.5,0.32,24.6,25.6,"08:39:04",1
"23/08/03","08:50",0.0,32.3,61.1,1006.9,137.2,1.3,2.9,151.1,0.34,23.9,25.7,"08:44:40",1
"23/08/03","09:00",0.0,32.2,61.3,1006.7,184.3,1.3,3.4,141.9,0.35,23.8,25.6,"08:53:04",1
"23/08/03","09:10",0.0,32.5,62.2,1006.7,182.6,1.6,3.3,210.7,0.36,24.4,25.7,"09:07:04",1
"23/08/03","09:20",0.0,33.1,59.3,1007.4,131.0,1.3,2.8,134.3,0.40,24.1,25.9,"09:18:00",1
"23/08/03","09:30",0.0,33.7,58.5,1006.9,124.7,1.3,3.9,112.7,0.44,24.5,25.9,"09:25:44",1
"23/08/03","09:40",0.0,33.7,56.1,1007.1,168.0,2.1,4.2,220.4,0.50,23.8,26.0,"09:37:52",1
"23/08/03","09:50",0.0,33.7,57.2,1006.9,183.9,2.2,3.9,227.1,0.46,24.1,26.2,"09:41:04",1
"23/08/03","10:00",0.0,33.7,55.2,1007.1,165.1,2.0,3.7,221.9,0.46,23.5,26.2,"09:59:44",1
"23/08/03","10:10",0.0,33.6,57.8,1006.7,182.7,1.3,2.4,164.1,0.40,24.2,26.2,"10:05:52",1
"23/08/03","10:20",0.0,34.1,55.7,1006.9,156.4,2.0,5.4,190.5,0.51,24.0,26.3,"10:13:04",1
"23/08/03","10:30",0.0,34.8,55.0,1006.9,134.5,1.5,3.2,150.7,0.51,24.5,26.3,"10:29:44",1
"23/08/03","10:40",0.0,34.3,54.3,1006.7,162.2,1.6,3.6,207.6,0.42,23.8,26.5,"10:36:56",1
"23/08/03","10:50",0.0,34.6,56.0,1006.2,168.1,1.8,3.1,197.8,0.41,24.6,26.7,"10:47:36",1
"23/08/03","11:00",0.0,35.4,54.1,1006.2,144.5,1.5,4.5,170.9,0.55,24.7,26.7,"10:52:08",1
"23/08/03","11:10",0.0,35.6,51.0,1006.4,161.5,1.6,3.6,191.3,0.55,23.9,26.7,"11:06:56",1
"23/08/03","11:20",0.0,35.3,50.5,1006.2,199.1,2.5,5.4,225.3,0.48,23.5,27.0,"11:13:20",1
"23/08/03","11:30",0.0,35.8,52.0,1006.0,155.3,1.3,3.2,149.3,0.52,24.4,27.0,"11:24:32",1
"23/08/03","11:40",0.0,36.0,49.0,1006.0,180.5,2.6,4.9,189.7,0.61,23.6,27.1,"11:39:52",1
"23/08/03","11:50",0.0,36.2,48.5,1006.0,159.4,2.1,5.1,218.3,0.51,23.7,27.2,"11:42:32",1
"23/08/03","12:00",0.0,36.0,49.9,1006.0,186.9,2.7,6.4,222.4,0.54,23.9,27.2,"11:52:48",1
"23/08/03","12:10",0.0,36.0,46.2,1005.5,199.1,2.3,5.0,225.1,0.57,22.7,27.5,"12:05:28",1
"23/08/03","12:20",0.0,35.8,48.1,1005.2,195.2,2.8,6.5,234.1,0.51,23.2,27.6,"12:17:52",1
"23/08/03","12:30",0.0,35.5,47.7,1005.5,175.6,2.1,4.7,229.6,0.40,22.7,27.5,"12:20:56",1
"23/08/03","12:40",0.0,36.4,47.3,1005.2,174.1,1.6,3.5,234.4,0.50,23.4,27.5,"12:36:24",1
"23/08/03","12:50",0.0,36.5,45.3,1005.0,205.2,1.8,4.8,195.9,0.58,22.8,27.8,"12:43:44",1
"23/08/03","13:00",0.0,36.6,45.3,1005.7,195.0,2.6,5.6,213.1,0.56,22.9,27.9,"12:52:24",1
"23/08/03","13:10",0.0,36.6,44.9,1005.5,214.2,1.3,3.3,237.1,0.43,22.7,27.9,"13:00:40",1
"23/08/03","13:20",0.0,37.1,43.9,1005.2,224.9,1.5,4.3,231.0,0.54,22.8,27.9,"13:17:44",1
"23/08/03","13:30",0.0,37.0,43.0,1005.2,241.2,1.7,5.1,235.8,0.52,22.4,28.2,"13:23:12",1
"23/08/03","13:40",0.0,36.9,42.1,1005.0,270.1,1.5,3.3,244.4,0.53,21.9,28.2,"13:36:48",1
"23/08/03","13:50",0.0,35.8,44.4,1004.5,287.2,1.3,3.1,282.3,0.21,21.8,28.3,"13:46:56",1
"23/08/03","14:00",0.0,36.8,44.2,1004.5,269.8,1.6,4.3,202.3,0.50,22.7,28.2,"13:59:36",1
"23/08/03","14:10",0.0,37.1,43.0,1004.5,222.7,1.7,4.0,220.9,0.50,22.5,28.1,"14:00:02",1
"23/08/03","14:20",0.0,37.0,40.5,1004.5,227.5,1.7,4.7,225.1,0.44,21.4,28.3,"14:11:20",1
"23/08/03","14:30",0.0,36.9,41.5,1004.8,210.9,1.8,4.4,198.5,0.39,21.7,28.5,"14:29:20",1
"23/08/03","14:40",0.0,36.6,42.0,1004.5,196.2,2.5,4.7,181.7,0.34,21.6,28.6,"14:36:16",1
"23/08/03","14:50",0.0,37.0,40.3,1004.1,204.6,2.3,4.2,225.7,0.40,21.3,28.5,"14:49:04",1
"23/08/03","15:00",0.0,35.7,43.9,1003.8,197.3,1.7,3.9,210.6,0.09,21.6,28.4,"14:55:44",1
"23/08/03","15:10",0.0,35.7,45.0,1003.1,209.5,1.3,3.2,237.5,0.16,22.0,28.5,"15:03:44",1
"23/08/03","15:20",0.0,37.1,43.2,1003.6,221.4,1.7,4.4,232.5,0.34,22.6,28.6,"15:18:48",1
"23/08/03","15:30",0.0,36.8,43.7,1003.1,235.8,2.3,5.1,231.9,0.32,22.5,28.7,"15:29:52",1
"23/08/03","15:40",0.0,36.5,43.9,1003.4,235.4,2.0,5.4,234.4,0.31,22.3,28.4,"15:33:52",1
"23/08/03","15:50",0.0,36.5,44.8,1003.4,246.1,2.1,5.1,214.7,0.28,22.6,28.6,"15:44:24",1
"23/08/03","16:00",0.0,36.3,46.4,1003.4,238.2,2.6,7.4,212.9,0.28,23.0,28.6,"15:56:16",1
"23/08/03","16:10",0.0,36.1,46.8,1003.4,238.2,2.8,5.5,228.0,0.26,23.0,28.3,"16:08:32",1
"23/08/03","16:20",0.0,35.6,48.1,1003.1,236.0,3.0,6.0,240.8,0.23,23.0,28.6,"16:14:32",1
"23/08/03","16:30",0.0,36.1,48.1,1003.1,256.4,1.5,5.7,232.9,0.21,23.4,28.5,"16:20:24",1
"23/08/03","16:40",0.0,35.9,48.6,1003.1,223.2,1.8,3.6,238.0,0.20,23.4,28.6,"16:33:04",1
"23/08/03","16:50",0.0,35.4,50.1,1003.1,223.9,2.8,6.4,214.4,0.19,23.5,28.5,"16:42:32",1
"23/08/03","17:00",0.0,35.0,51.5,1002.9,224.6,1.6,4.1,205.0,0.14,23.6,28.5,"16:57:12",1
"23/08/03","17:10",0.0,34.5,53.6,1003.1,235.6,2.1,4.0,204.7,0.12,23.8,28.5,"17:01:28",1
"23/08/03","17:20",0.0,34.0,54.4,1002.6,236.2,1.7,4.2,246.0,0.07,23.5,28.4,"17:13:20",1
"23/08/03","17:30",0.0,33.8,55.3,1002.9,234.2,1.2,4.0,199.3,0.07,23.6,28.5,"17:22:48",1
"23/08/03","17:40",0.0,33.6,55.4,1002.6,216.9,2.2,5.0,219.4,0.05,23.5,28.4,"17:39:28",1
"23/08/03","17:50",0.0,32.8,57.1,1002.9,185.2,2.1,3.9,143.2,0.02,23.2,28.4,"17:43:36",1
"23/08/03","18:00",0.0,32.4,58.1,1002.4,193.2,2.3,4.4,215.2,0.01,23.1,28.3,"17:52:00",1
"23/08/03","18:10",0.0,32.4,58.7,1001.9,198.5,2.2,4.9,230.5,0.01,23.3,28.3,"18:02:16",1
"23/08/03","18:20",0.0,32.3,59.1,1002.2,223.0,1.5,3.3,230.2,0.00,23.3,28.0,"18:12:24",1
"23/08/03","18:30",0.0,32.2,59.2,1001.9,245.5,2.0,4.3,228.9,0.01,23.3,28.2,"18:22:08",1
"23/08/03","18:40",0.0,31.9,59.9,1001.9,251.9,1.1,3.4,241.1,0.00,23.2,27.9,"18:36:48",1
"23/08/03","18:50",0.0,31.7,60.7,1001.7,212.5,1.0,3.4,231.9,0.00,23.2,28.2,"18:48:56",1
"23/08/03","19:00",0.0,31.4,61.3,1001.7,263.9,1.2,4.3,193.7,0.00,23.1,27.9,"18:53:20",1
"23/08/03","19:10",0.0,31.3,61.9,1001.7,236.6,1.2,3.3,235.4,0.00,23.2,28.0,"19:03:52",1
"23/08/03","19:20",0.0,31.1,62.6,1001.5,242.7,1.5,3.5,235.3,0.00,23.2,28.0,"19:16:08",1
"23/08/03","19:30",0.0,30.8,63.2,1001.7,252.4,1.5,3.3,221.3,0.00,23.0,27.9,"19:28:56",1
"23/08/03","19:40",0.0,30.7,63.3,1001.7,246.9,2.0,4.0,219.5,0.00,23.0,28.0,"19:36:08",1
"23/08/03","19:50",0.0,30.6,63.4,1001.7,245.0,2.0,4.8,233.8,0.00,22.9,27.8,"19:49:36",1
"23/08/03","20:00",0.0,30.5,63.7,1001.7,243.0,2.0,4.9,231.4,0.00,22.9,27.8,"19:51:28",1
"23/08/03","20:10",0.0,30.3,64.1,1001.9,267.6,1.6,4.5,217.8,0.00,22.8,27.6,"20:02:16",1
"23/08/03","20:20",0.0,30.2,64.5,1001.9,246.3,2.3,5.4,194.1,0.00,22.8,27.5,"20:14:16",1
"23/08/03","20:30",0.0,30.1,64.9,1001.9,252.9,2.1,6.0,231.9,0.00,22.8,27.5,"20:20:16",1
"23/08/03","20:40",0.0,30.0,65.3,1002.2,284.3,1.3,2.9,245.0,0.00,22.8,27.4,"20:33:36",1
"23/08/03","20:50",0.0,29.8,65.8,1002.4,313.1,1.2,3.9,333.0,0.00,22.8,27.5,"20:46:40",1
"23/08/03","21:00",0.0,29.7,66.3,1002.4,323.2,1.3,2.8,329.2,0.00,22.8,27.4,"20:52:48",1
"23/08/03","21:10",0.0,29.6,67.0,1002.6,331.1,1.0,1.9,334.5,0.00,22.9,27.5,"21:05:44",1
"23/08/03","21:20",0.0,29.2,68.2,1002.4,340.8,1.1,2.2,333.6,0.00,22.8,27.4,"21:15:44",1
"23/08/03","21:30",0.0,28.8,69.9,1002.9,353.6,0.8,1.8,12.6,0.00,22.8,27.5,"21:21:44",1
"23/08/03","21:40",0.0,28.4,72.1,1002.9,333.0,0.8,1.4,3.9,0.00,22.9,27.3,"21:37:36",1
"23/08/03","21:50",0.0,28.2,73.5,1003.1,348.8,1.0,1.8,25.9,0.00,23.1,27.2,"21:45:04",1
"23/08/03","22:00",0.0,28.0,74.0,1002.9,344.5,0.7,1.4,346.3,0.00,23.0,27.3,"21:50:24",1
"23/08/03","22:10",0.0,27.9,74.4,1003.1,339.4,0.5,1.1,323.8,0.00,23.0,27.2,"22:01:28",1
"23/08/03","22:20",0.0,27.8,75.4,1003.1,311.7,0.7,1.1,332.5,0.00,23.1,27.1,"22:11:20",1
"23/08/03","22:30",0.0,27.4,77.0,1002.6,339.2,0.8,1.4,352.3,0.00,23.0,27.1,"22:29:52",1
"23/08/03","22:40",0.0,27.3,77.8,1002.6,341.5,1.0,1.8,339.7,0.00,23.1,27.1,"22:35:28",1
"23/08/03","22:50",0.0,27.1,78.0,1002.9,326.5,1.2,2.0,294.0,0.00,23.0,26.9,"22:48:48",1
"23/08/03","23:00",0.0,27.3,77.5,1003.1,313.7,1.2,1.9,293.2,0.00,23.1,26.8,"22:51:44",1
"23/08/03","23:10",0.0,27.3,77.5,1002.9,298.6,0.7,1.6,340.3,0.00,23.1,26.8,"23:07:36",1
"23/08/03","23:20",0.0,27.3,77.8,1002.9,342.0,1.1,2.5,344.8,0.00,23.1,26.7,"23:11:44",1
"23/08/03","23:30",0.0,27.1,78.8,1002.6,315.8,1.1,1.4,326.6,0.00,23.1,26.8,"23:20:40",1
"23/08/03","23:40",0.0,26.8,79.7,1002.9,331.9,1.1,1.8,326.5,0.00,23.0,26.6,"23:37:20",1
"23/08/03","23:50",0.0,26.7,80.2,1002.9,325.4,1.0,1.4,338.2,0.00,23.0,26.8,"23:40:24",1
"23/08/03","24:00",0.0,26.7,80.5,1002.9,326.7,0.8,1.4,340.6,0.00,23.1,26.7,"23:52:48",1
